Hourly Weather Kozly

Today, 24 October, Saturday

Time Temperature Precipitation Wind Pressure Humidity
00:00 +12°C° 0.1 mm 2 mps 746 mmHg 96%
01:00 +12°C° 0.1 mm 2 mps 745 mmHg 97%
02:00 +12°C° 0.1 mm 1 mps 745 mmHg 97%
03:00 +13°C° 0.2 mm 2 mps 745 mmHg 95%
04:00 +12°C° 0.2 mm 3 mps 744 mmHg 92%
05:00 +12°C° 0.2 mm 4 mps 744 mmHg 89%
06:00 +12°C° 0.7 mm 4 mps 744 mmHg 91%
07:00 +11°C° 0.7 mm 4 mps 744 mmHg 92%
08:00 +11°C° 0.7 mm 4 mps 744 mmHg 94%
09:00 +12°C° 0.1 mm 4 mps 744 mmHg 92%
10:00 +12°C° 0.1 mm 4 mps 744 mmHg 91%
11:00 +13°C° 0.1 mm 4 mps 745 mmHg 90%
12:00 +13°C° 0 mm 4 mps 745 mmHg 83%
13:00 +14°C° 0 mm 4 mps 746 mmHg 75%
14:00 +15°C° 0 mm 4 mps 746 mmHg 68%
15:00 +14°C° 0 mm 3 mps 746 mmHg 72%
16:00 +13°C° 0 mm 3 mps 746 mmHg 77%
17:00 +13°C° 0 mm 2 mps 746 mmHg 81%
18:00 +13°C° 0 mm 2 mps 747 mmHg 84%
19:00 +12°C° 0 mm 2 mps 747 mmHg 87%
20:00 +10°C° 0 mm 2 mps 748 mmHg 90%
21:00 +10°C° 0 mm 3 mps 748 mmHg 91%
22:00 +10°C° 0 mm 3 mps 748 mmHg 92%
23:00 +10°C° 0 mm 3 mps 748 mmHg 93%

Tomorrow, 25 October, Sunday

Time Temperature Precipitation Wind Pressure Humidity
00:00 +10°C° 0 mm 3 mps 748 mmHg 94%
01:00 +9°C° 0 mm 2 mps 748 mmHg 95%
02:00 +9°C° 0 mm 2 mps 749 mmHg 95%
03:00 +9°C° 0 mm 2 mps 749 mmHg 95%
04:00 +9°C° 0 mm 2 mps 749 mmHg 95%
05:00 +9°C° 0 mm 2 mps 748 mmHg 95%
06:00 +9°C° 0 mm 2 mps 749 mmHg 95%
07:00 +9°C° 0 mm 2 mps 749 mmHg 95%
08:00 +10°C° 0 mm 1 mps 749 mmHg 95%
09:00 +10°C° 0 mm 2 mps 749 mmHg 89%
10:00 +13°C° 0 mm 2 mps 749 mmHg 84%
11:00 +14°C° 0 mm 2 mps 750 mmHg 78%
12:00 +15°C° 0 mm 2 mps 749 mmHg 74%
13:00 +16°C° 0 mm 2 mps 749 mmHg 71%
14:00 +16°C° 0 mm 2 mps 749 mmHg 67%
15:00 +15°C° 0 mm 2 mps 749 mmHg 71%
16:00 +14°C° 0 mm 2 mps 749 mmHg 75%
17:00 +13°C° 0 mm 2 mps 748 mmHg 80%
18:00 +13°C° 0 mm 2 mps 748 mmHg 83%
19:00 +11°C° 0 mm 3 mps 749 mmHg 86%
20:00 +11°C° 0 mm 3 mps 749 mmHg 90%
21:00 +11°C° 0 mm 3 mps 749 mmHg 89%
22:00 +10°C° 0 mm 3 mps 748 mmHg 88%
23:00 +10°C° 0 mm 3 mps 748 mmHg 87%

Day after tomorrow, 26 October, Monday

Time Temperature Precipitation Wind Pressure Humidity
00:00 +10°C° 0 mm 3 mps 748 mmHg 87%
01:00 +9°C° 0 mm 3 mps 748 mmHg 87%
02:00 +8°C° 0 mm 4 mps 748 mmHg 87%
03:00 +8°C° 0 mm 4 mps 747 mmHg 87%
04:00 +10°C° 0 mm 4 mps 747 mmHg 87%
05:00 +10°C° 0 mm 4 mps 747 mmHg 87%
06:00 +9°C° 0 mm 5 mps 746 mmHg 88%
07:00 +9°C° 0 mm 5 mps 746 mmHg 90%
08:00 +9°C° 0 mm 5 mps 746 mmHg 91%
09:00 +10°C° 0 mm 5 mps 746 mmHg 88%
10:00 +11°C° 0 mm 6 mps 746 mmHg 85%
11:00 +13°C° 0 mm 6 mps 746 mmHg 82%
12:00 +14°C° 0 mm 6 mps 746 mmHg 78%
13:00 +15°C° 0 mm 6 mps 746 mmHg 74%
14:00 +16°C° 0 mm 6 mps 745 mmHg 71%
15:00 +15°C° 0 mm 5 mps 745 mmHg 74%
16:00 +15°C° 0 mm 4 mps 745 mmHg 76%
17:00 +14°C° 0 mm 4 mps 745 mmHg 79%
18:00 +14°C° 0 mm 4 mps 745 mmHg 80%
19:00 +14°C° 0 mm 5 mps 745 mmHg 81%
20:00 +14°C° 0 mm 5 mps 745 mmHg 82%
21:00 +13°C° 0 mm 5 mps 745 mmHg 84%
22:00 +13°C° 0 mm 5 mps 745 mmHg 86%
23:00 +12°C° 0 mm 5 mps 745 mmHg 88%

, 27 October, Tuesday

Time Temperature Precipitation Wind Pressure Humidity
00:00 +12°C° 0 mm 5 mps 745 mmHg 88%
01:00 +12°C° 0 mm 5 mps 745 mmHg 87%
02:00 +12°C° 0 mm 5 mps 745 mmHg 87%
03:00 +13°C° 0 mm 5 mps 745 mmHg 86%
04:00 +13°C° 0 mm 5 mps 745 mmHg 84%
05:00 +13°C° 0 mm 5 mps 745 mmHg 83%
06:00 +13°C° 0 mm 5 mps 745 mmHg 83%
07:00 +13°C° 0 mm 5 mps 745 mmHg 82%
08:00 +13°C° 0 mm 5 mps 745 mmHg 82%
09:00 +13°C° 0 mm 5 mps 746 mmHg 79%
10:00 +14°C° 0 mm 5 mps 746 mmHg 77%
11:00 +15°C° 0 mm 5 mps 746 mmHg 74%
12:00 +16°C° 0 mm 5 mps 746 mmHg 71%
13:00 +16°C° 0 mm 5 mps 746 mmHg 68%
14:00 +17°C° 0 mm 5 mps 746 mmHg 65%
15:00 +17°C° 0 mm 4 mps 746 mmHg 68%
16:00 +17°C° 0 mm 4 mps 746 mmHg 71%
17:00 +15°C° 0 mm 4 mps 746 mmHg 74%
18:00 +14°C° 0 mm 4 mps 746 mmHg 76%
19:00 +14°C° 0 mm 4 mps 746 mmHg 78%
20:00 +13°C° 0 mm 4 mps 746 mmHg 80%
21:00 +13°C° 0 mm 4 mps 746 mmHg 83%
22:00 +13°C° 0 mm 4 mps 746 mmHg 86%
23:00 +13°C° 0 mm 4 mps 746 mmHg 89%

27 October, Tuesday

Time Temperature Precipitation Wind Pressure Humidity
00:00 +12°C° 0 mm 5 mps 745 mmHg 88%
01:00 +12°C° 0 mm 5 mps 745 mmHg 87%
02:00 +12°C° 0 mm 5 mps 745 mmHg 87%
03:00 +13°C° 0 mm 5 mps 745 mmHg 86%
04:00 +13°C° 0 mm 5 mps 745 mmHg 84%
05:00 +13°C° 0 mm 5 mps 745 mmHg 83%
06:00 +13°C° 0 mm 5 mps 745 mmHg 83%
07:00 +13°C° 0 mm 5 mps 745 mmHg 82%
08:00 +13°C° 0 mm 5 mps 745 mmHg 82%
09:00 +13°C° 0 mm 5 mps 746 mmHg 79%
10:00 +14°C° 0 mm 5 mps 746 mmHg 77%
11:00 +15°C° 0 mm 5 mps 746 mmHg 74%
12:00 +16°C° 0 mm 5 mps 746 mmHg 71%
13:00 +16°C° 0 mm 5 mps 746 mmHg 68%
14:00 +17°C° 0 mm 5 mps 746 mmHg 65%
15:00 +17°C° 0 mm 4 mps 746 mmHg 68%
16:00 +17°C° 0 mm 4 mps 746 mmHg 71%
17:00 +15°C° 0 mm 4 mps 746 mmHg 74%
18:00 +14°C° 0 mm 4 mps 746 mmHg 76%
19:00 +14°C° 0 mm 4 mps 746 mmHg 78%
20:00 +13°C° 0 mm 4 mps 746 mmHg 80%
21:00 +13°C° 0 mm 4 mps 746 mmHg 83%
22:00 +13°C° 0 mm 4 mps 746 mmHg 86%
23:00 +13°C° 0 mm 4 mps 746 mmHg 89%

28 October, Wednesday

Time Temperature Precipitation Wind Pressure Humidity
00:00 +12°C° 0 mm 4 mps 746 mmHg 91%
01:00 +12°C° 0 mm 4 mps 746 mmHg 92%
02:00 +12°C° 0 mm 4 mps 746 mmHg 94%
03:00 +11°C° 0 mm 3 mps 747 mmHg 94%
04:00 +11°C° 0 mm 3 mps 747 mmHg 95%
05:00 +12°C° 0 mm 2 mps 747 mmHg 95%
06:00 +10°C° 0 mm 2 mps 747 mmHg 95%
07:00 +10°C° 0 mm 2 mps 747 mmHg 95%
08:00 +11°C° 0 mm 1 mps 748 mmHg 95%
09:00 +12°C° 0 mm 1 mps 748 mmHg 90%
10:00 +13°C° 0 mm 1 mps 748 mmHg 84%
11:00 +15°C° 0 mm 1 mps 748 mmHg 79%
12:00 +15°C° 0 mm 2 mps 748 mmHg 75%
13:00 +16°C° 0 mm 2 mps 748 mmHg 72%
14:00 +17°C° 0 mm 2 mps 748 mmHg 69%
15:00 +16°C° 0 mm 2 mps 748 mmHg 72%
16:00 +15°C° 0 mm 1 mps 748 mmHg 76%
17:00 +14°C° 0 mm 1 mps 748 mmHg 80%
18:00 +14°C° 0 mm 1 mps 748 mmHg 82%
19:00 +13°C° 0 mm 1 mps 748 mmHg 84%
20:00 +13°C° 0 mm 1 mps 748 mmHg 86%
21:00 +13°C° 0 mm 2 mps 748 mmHg 86%
22:00 +13°C° 0 mm 2 mps 748 mmHg 87%
23:00 +12°C° 0 mm 2 mps 748 mmHg 87%

29 October, Thursday

Time Temperature Precipitation Wind Pressure Humidity
00:00 +12°C° 0 mm 2 mps 748 mmHg 89%
01:00 +12°C° 0 mm 2 mps 748 mmHg 90%
02:00 +12°C° 0 mm 2 mps 748 mmHg 91%
03:00 +12°C° 0 mm 2 mps 748 mmHg 91%
04:00 +12°C° 0 mm 2 mps 748 mmHg 91%
05:00 +12°C° 0 mm 2 mps 748 mmHg 91%
06:00 +10°C° 0 mm 2 mps 748 mmHg 92%
07:00 +10°C° 0 mm 2 mps 748 mmHg 92%
08:00 +10°C° 0 mm 2 mps 748 mmHg 93%
09:00 +12°C° 0 mm 2 mps 749 mmHg 85%
10:00 +13°C° 0 mm 2 mps 749 mmHg 78%
11:00 +13°C° 0 mm 3 mps 749 mmHg 70%
12:00 +14°C° 0 mm 3 mps 749 mmHg 65%
13:00 +15°C° 0 mm 4 mps 749 mmHg 60%
14:00 +15°C° 0 mm 4 mps 749 mmHg 54%
15:00 +15°C° 0 mm 4 mps 749 mmHg 59%
16:00 +14°C° 0 mm 3 mps 749 mmHg 63%
17:00 +13°C° 0 mm 3 mps 749 mmHg 67%
18:00 +13°C° 0 mm 3 mps 749 mmHg 68%
19:00 +12°C° 0 mm 3 mps 750 mmHg 70%
20:00 +12°C° 0 mm 3 mps 750 mmHg 71%
21:00 +11°C° 0.1 mm 3 mps 750 mmHg 75%
22:00 +11°C° 0.1 mm 3 mps 751 mmHg 80%
23:00 +10°C° 0.1 mm 2 mps 751 mmHg 84%
Show more